Address 0x8c985aef4609a1a90bb48dd203ee5eb3a988f91c 1

 

Overview

Balance:
1.717847456357973268 ETH

ETH Value:
$6,429.94 (@ $3,743.02/ETH)

Token:
Txn Hash Method
Block
From
To
Value [Txn Fee]
0xd3288d1ac47b56166b9483157302d1cb411e7f13a3aaa5ceeb525f555da623c9Withdraw716492522023-03-20 3:57:25428 days 16 hrs ago0x8c985aef4609a1a90bb48dd203ee5eb3a988f91cOUT Radiant: Lending Pool Logic0 ETH0.0000697 0.1
0x4d1483b954330953f9a3c82288a31f012f718ae6a67496dfbdbfc8d1a09e76bbWithdraw ETH716492162023-03-20 3:57:16428 days 16 hrs ago0x8c985aef4609a1a90bb48dd203ee5eb3a988f91cOUT Radiant: WETH Gateway0 ETH0.00008929 0.1
0x8003650a226faa8f5a63dc35eb41339bea8e3edaf02b32559c3bdd02a67c037bApprove716491952023-03-20 3:57:11428 days 16 hrs ago0x8c985aef4609a1a90bb48dd203ee5eb3a988f91cOUT 0x15b53d277af860f51c3e6843f8075007026bbb3a0 ETH0.00004283 0.1
0x7d5b8c4d7a8a4b54477fdc68a3ced115465801f21106ba27468d24f84aa91a3fRepay ETH716491452023-03-20 3:56:59428 days 16 hrs ago0x8c985aef4609a1a90bb48dd203ee5eb3a988f91cOUT Radiant: WETH Gateway0.037920909266877 ETH0.00008501 0.1
0x2a0471909ab91ee85d7c860fff35a75da998a9d8e44d1fa736f483458612e96fRepay716491012023-03-20 3:56:47428 days 16 hrs ago0x8c985aef4609a1a90bb48dd203ee5eb3a988f91cOUT Radiant: Lending Pool Logic0 ETH0.00007849 0.1
0x8cb976ca63d1d143df4bdcc0f76c6296f71b9ea105b26e1d9ba3ce9a942b351cRepay716490622023-03-20 3:56:37428 days 16 hrs ago0x8c985aef4609a1a90bb48dd203ee5eb3a988f91cOUT Radiant: Lending Pool Logic0 ETH0.00008073 0.1
0xc077814e9bfcb0e2bfaa325c8d5c485dda405fe99ebf4d43034ccb02ec3bf565Repay716490202023-03-20 3:56:27428 days 16 hrs ago0x8c985aef4609a1a90bb48dd203ee5eb3a988f91cOUT Radiant: Lending Pool Logic0 ETH0.00008051 0.1
0x37546732efb1242cd3d6222e93583f36bcdf711e6e8d4bedbef2cd11f94f22e7Repay716489822023-03-20 3:56:17428 days 16 hrs ago0x8c985aef4609a1a90bb48dd203ee5eb3a988f91cOUT Radiant: Lending Pool Logic0 ETH0.00008018 0.1
0xb24b204bbdd49d77d962aee1ef0c17870fa7faeec3a9807c13840c3f090bbd55Withdraw716488932023-03-20 3:55:53428 days 16 hrs ago0x8c985aef4609a1a90bb48dd203ee5eb3a988f91cOUT Radiant: Lending Pool Logic0 ETH0.00010684 0.1
0x30760d5c9f44a532146b706e8f13819abba990d66c7db553f0d460c5f5520aa0Withdraw716488382023-03-20 3:55:39428 days 16 hrs ago0x8c985aef4609a1a90bb48dd203ee5eb3a988f91cOUT Radiant: Lending Pool Logic0 ETH0.00010826 0.1
0x5ccecd0c09bf34cdcbdd16c4300e797301635b85328f619233d36fbdf6fb098cWithdraw716487912023-03-20 3:55:27428 days 16 hrs ago0x8c985aef4609a1a90bb48dd203ee5eb3a988f91cOUT Radiant: Lending Pool Logic0 ETH0.00010926 0.1
0x795e81adfa90fd4161f88f77936115b2507459aeba0677475fa8376c78eb2824Deposit716460082023-03-20 3:43:45428 days 16 hrs ago0x8c985aef4609a1a90bb48dd203ee5eb3a988f91cOUT Radiant: MasterChef0 ETH0.00003829 0.1
0x4db1d55e30e1e3c5c44934321036e44c00477c98c418b87623a281fa67953825Approve716459822023-03-20 3:43:39428 days 16 hrs ago0x8c985aef4609a1a90bb48dd203ee5eb3a988f91cOUT 0x24704aff49645d32655a76df6d407e02d146dafc0 ETH0.00003166 0.1
0xeb6329de5be5d84e4c05a9c33943bf9cd7a23d7cb0f6d652befcecbfeac511d0Add Liquidity716458502023-03-20 3:43:04428 days 16 hrs ago0x8c985aef4609a1a90bb48dd203ee5eb3a988f91cOUT SushiSwap: Router0 ETH0.00007351 0.1
0xbbcc859c4ef06f25f442169ea8eecfad6699438ddb9a94fd7edaf38a13655643Approve716455752023-03-20 3:41:54428 days 17 hrs ago0x8c985aef4609a1a90bb48dd203ee5eb3a988f91cOUT Radiant: Old RDNT Token0 ETH0.00003165 0.1
0x6a04d7cfed83d73e8b0a030dc62e4d5f5df448387addfc06ae5672415d68ebfaApprove716453882023-03-20 3:41:14428 days 17 hrs ago0x8c985aef4609a1a90bb48dd203ee5eb3a988f91cOUT Wrapped Ether0 ETH0.00002848 0.1
0x38bce52e7317743294f9c10e6b0aa5b1428120219c741d03f02a18e6e4579277Claim716449162023-03-20 3:39:13428 days 17 hrs ago0x8c985aef4609a1a90bb48dd203ee5eb3a988f91cOUT Radiant: Chef Incentives Controller0 ETH0.00013749 0.1
0xb3c3db55319598919545ddcf5aa72ceac20afca5dd1c03f879ac2b88eb656aeeGet Reward716448752023-03-20 3:39:03428 days 17 hrs ago0x8c985aef4609a1a90bb48dd203ee5eb3a988f91cOUT Radiant: Multi Fee Distribution0 ETH0.00012559 0.1
0xa6b54c2ea058827db566779165d96b45312b21355dae09bea4639380f4029498Withdraw575897112023-02-03 3:58:53473 days 16 hrs ago0x8c985aef4609a1a90bb48dd203ee5eb3a988f91cOUT Radiant: Multi Fee Distribution0 ETH0.000060010.1
0x563055daab9bc73a50fe74900911e57a7595576adb3894caec7cdd71fa011616Withdraw575896192023-02-03 3:58:20473 days 16 hrs ago0x8c985aef4609a1a90bb48dd203ee5eb3a988f91cOUT Radiant: Multi Fee Distribution0 ETH0.000069960.1
0x6b3ce2ae555b6efdd9a868d3a4bc1083d04edd50f72c8c6a9c7a851683d47baaGet Reward539763432023-01-18 21:50:15488 days 22 hrs ago0x8c985aef4609a1a90bb48dd203ee5eb3a988f91cOUT Radiant: Multi Fee Distribution0 ETH0.00017524 0.1
0x357d17e3571f57ab9bcd3f65d35ab7b8652abdd5db4eee0bb4a0b49d4c5c3ebfGet Reward355794662022-11-05 23:32:15562 days 21 hrs ago0x8c985aef4609a1a90bb48dd203ee5eb3a988f91cOUT Radiant: Multi Fee Distribution0 ETH0.00011298 0.1
0xed125afc3afa5e35737c2b9c2776a20720be244e5cf89311c7431bb93406df61Borrow ETH287730212022-10-06 23:02:56592 days 21 hrs ago0x8c985aef4609a1a90bb48dd203ee5eb3a988f91cOUT Radiant: WETH Gateway0 ETH0.00009153 0.1
0xab50c563f841a672a9b8fbd67b456cb9fe0f7357a8fd07f4cc4ff1932840c0a4Borrow287729932022-10-06 23:02:45592 days 21 hrs ago0x8c985aef4609a1a90bb48dd203ee5eb3a988f91cOUT Radiant: Lending Pool Logic0 ETH0.00008853 0.1
0x003a124477ba0ef0c50d5c896b9cd5ef8823a2f727cfc43550ef8eec02dcc8adBorrow287729742022-10-06 23:02:32592 days 21 hrs ago0x8c985aef4609a1a90bb48dd203ee5eb3a988f91cOUT Radiant: Lending Pool Logic0 ETH0.00009056 0.1
[ Download CSV Export 
Latest 5 internal transactions
Parent Txn Hash Block From To Value
0x4d1483b954330953f9a3c82288a31f012f718ae6a67496dfbdbfc8d1a09e76bb716492162023-03-20 3:57:16428 days 16 hrs ago Radiant: WETH Gateway0x8c985aef4609a1a90bb48dd203ee5eb3a988f91c0.147164813461609422 ETH
0x7d5b8c4d7a8a4b54477fdc68a3ced115465801f21106ba27468d24f84aa91a3f716491452023-03-20 3:56:59428 days 16 hrs ago Radiant: WETH Gateway0x8c985aef4609a1a90bb48dd203ee5eb3a988f91c0.000094565411595331 ETH
0xed125afc3afa5e35737c2b9c2776a20720be244e5cf89311c7431bb93406df61287730212022-10-06 23:02:56592 days 21 hrs ago Radiant: WETH Gateway0x8c985aef4609a1a90bb48dd203ee5eb3a988f91c0.006381934626358557 ETH
0x2684445259f089a5a79aff4089601fd4f38b0f83c9018ae99fba933e19a6d871185679942022-07-25 23:16:36665 days 21 hrs ago Radiant: WETH Gateway0x8c985aef4609a1a90bb48dd203ee5eb3a988f91c0.01188368280196489 ETH
0x512ff42f7fd0d37115364cbb4c5533c141cccd63b8357652edc63213214fbdca184662082022-07-24 19:07:30667 days 1 hr ago Radiant: WETH Gateway0x8c985aef4609a1a90bb48dd203ee5eb3a988f91c0.0175 ETH
[ Download CSV Export 
Loading

Contract Name:
0 ETH

Compiler Version
0

Optimization Enabled:
0 ETH

Other Settings:
-NA-
Block Transaction Gas Used Reward
Age Block Fee Address BC Fee Address Voting Power Jailed Incoming
Block Uncle Number Difficulty Gas Used Reward
Loading
Make sure to use the "Vote Down" button for any spammy posts, and the "Vote Up" for interesting conversations.